User: anonymous   Login
Location: Unspecified
(0.0000°N, 0.0000°E)
Time: 08:52:45
(UTC+00:00)
Language:

GALILEO-FM2 - Orbit

View from above orbital plane
View from above orbital plane
View from above satellite
View from above satellite

Ground track
Ground track

The orbit data is extracted from the following two-line orbital elements,

1 37847U 11060B   17177.59255370 -.00000066 +00000-0 +00000-0 0  9999
2 37847 055.8335 071.4473 0004733 328.7316 071.4044 01.70475863035259
Epoch (UTC): 26 June 2017 14:13:16
Eccentricity: 0.0004733
inclination: 55.8335°
perigee height: 23208 km
apogee height: 23236 km
right ascension of ascending node: 71.4473°
argument of perigee: 328.7316°
revolutions per day: 1.70475863
mean anomaly at epoch: 71.4044°
orbit number at epoch: 3525

The dashed part of the orbit path shows where the satellite is in the earth's shadow,  

DLR